Pierceville, KS

11:15 PM CST on January 20, 2017 (GMT -0600)
Garden City

Weather History for KGCK - January, 2013

Change the Weather History Date:

Wednesday, January 2, 2013

  Actual Average Record
Temperature  
Mean Temperature 15 °F 31 °F  
Max Temperature 31 °F 44 °F 72 °F (1997)
Min Temperature -1 °F 18 °F -13 °F (1979)
Degree Days  
Heating Degree Days 50 34  
Month to date heating degree days 103 68  
Since 1 July heating degree days 2073 2191  
Cooling Degree Days 0 0  
Month to date cooling degree days 0 0  
Year to date cooling degree days 0 0  
Moisture  
Dew Point 12 °F    
Average Humidity 82    
Maximum Humidity 92    
Minimum Humidity 72    
Precipitation  
Precipitation 0.00 in 0.01 in 0.49 in (1951)
Month to date precipitation T 0.02  
Year to date precipitation T 0.02  
Sea Level Pressure  
Sea Level Pressure 30.32 in    
Wind  
Wind Speed 10 mph (WNW)    
Max Wind Speed 16 mph    
Max Gust Speed 20 mph    
Visibility 10 miles    
Events      
T = Trace of Precipitation, MM = Missing Value Source: NWS Daily Summary

Daily Weather History Graph

Daily Weather History Graph

Search for Another Location

Airport or City:

Trip Planner

Search our weather history database for the weather conditions in past years. The results will help you decide how hot, cold, wet, or windy it might be!

Date:

Astronomy

Jan. 02, 2013 Rise Set
Actual Time 7:58 AM CST 5:35 PM CST
Civil Twilight 7:29 AM CST 6:04 PM CST
Nautical Twilight 6:56 AM CST 6:37 PM CST
Astronomical Twilight 6:24 AM CST 7:09 PM CST
Moon 11:03 PM CST (1/2) 10:47 AM CST (1/2)
Length of Visible Light 10h 35m
Length of Day
9h 36m
Waning Gibbous, 75% of the Moon is Illuminated
Jan 2
Waning Gibbous
Jan 4
Last Quarter
Jan 11
New
Jan 18
First Quarter
Jan 26
Full

Hourly Weather History & Observations

Time (CST) Temp. Windchill Dew Point Humidity Pressure Visibility Wind Dir Wind Speed Gust Speed Precip Events Conditions
12:54 AM 3.9 °F -8.2 °F 1.9 °F 91% 30.31 in 9.0 mi SW 6.9 mph - N/A   Clear
1:54 AM 1.0 °F -14.0 °F -2.0 °F 87% 30.30 in 8.0 mi West 9.2 mph - 0.00 in   Clear
2:54 AM 3.9 °F -12.2 °F -0.0 °F 84% 30.30 in 10.0 mi West 11.5 mph - N/A   Clear
3:54 AM 1.0 °F -11.7 °F -2.9 °F 83% 30.29 in 10.0 mi West 6.9 mph - N/A   Clear
4:54 AM 8.1 °F -6.2 °F 3.9 °F 83% 30.25 in 10.0 mi WNW 10.4 mph - N/A   Clear
5:54 AM 9.0 °F -4.2 °F 5.0 °F 84% 30.27 in 10.0 mi West 9.2 mph - N/A   Clear
6:54 AM 8.1 °F -5.3 °F 3.9 °F 83% 30.28 in 10.0 mi West 9.2 mph - N/A   Clear
7:54 AM 10.0 °F -4.5 °F 6.1 °F 84% 30.29 in 10.0 mi WNW 11.5 mph - N/A   Clear
8:54 AM 14.0 °F 0.5 °F 10.0 °F 84% 30.31 in 10.0 mi West 11.5 mph - N/A   Clear
9:54 AM 19.9 °F 6.7 °F 15.1 °F 81% 30.32 in 10.0 mi WNW 13.8 mph - N/A   Scattered Clouds
10:54 AM 19.9 °F 9.3 °F 15.1 °F 81% 30.33 in 10.0 mi WNW 9.2 mph - N/A   Clear
11:54 AM 28.0 °F 17.5 °F 23.0 °F 81% 30.31 in 10.0 mi NNW 12.7 mph - N/A   Partly Cloudy
12:54 PM 30.0 °F 20.5 °F 25.0 °F 82% 30.30 in 10.0 mi NNW 11.5 mph - N/A   Clear
1:54 PM 30.9 °F 22.2 °F 26.1 °F 82% 30.29 in 10.0 mi NNW 10.4 mph - N/A   Partly Cloudy
2:54 PM 30.9 °F 22.8 °F 25.0 °F 79% 30.27 in 10.0 mi NNW 9.2 mph - N/A   Clear
3:54 PM 30.0 °F 22.4 °F 23.0 °F 75% 30.31 in 10.0 mi NW 8.1 mph - N/A   Clear
4:54 PM 28.4 °F 23.3 °F 21.2 °F 74% 30.19 in 10.0 mi WNW 4.6 mph - N/A   Clear
5:54 PM 28.0 °F 20.8 °F 21.0 °F 75% 30.32 in 10.0 mi WNW 6.9 mph - N/A   Clear
6:54 PM 21.0 °F 11.4 °F 17.1 °F 85% 30.36 in 10.0 mi WNW 8.1 mph - N/A   Clear
7:54 PM 14.0 °F 2.0 °F 10.9 °F 88% 30.38 in 10.0 mi WNW 9.2 mph - N/A   Clear
8:54 PM 12.9 °F -0.2 °F 10.0 °F 88% 30.39 in 10.0 mi WNW 10.4 mph - N/A   Clear
9:54 PM 14.0 °F 1.2 °F 10.0 °F 84% 30.39 in 10.0 mi WNW 10.4 mph - N/A   Clear
10:54 PM 10.9 °F -2.6 °F 7.0 °F 84% 30.41 in 10.0 mi WNW 10.4 mph - N/A   Clear
11:54 PM 10.0 °F -3.7 °F 6.1 °F 84% 30.40 in 10.0 mi WNW 10.4 mph - N/A   Clear